| time (UTC) | temp F | wind direction | speed MPH | gust MPH | rain 1hr in | rain 24hr in | rain mn in | humidity % | barometer mb |
| 20260902031511 | 63 | 312 | 0.0 | 4.0 | 0.00 | 0.00 | 0.00 | 70 | 1019.3 |
| 20260902030003 | 62 | 302 | 1.0 | 8.0 | 0.00 | 0.00 | 0.00 | 69 | 1019.6 |
| 20260902024606 | 62 | 277 | 0.0 | 18.0 | 0.00 | 0.00 | 0.00 | 69 | 1019.9 |
| 20260902023057 | 62 | 284 | 0.0 | 1.0 | 0.00 | 0.00 | 0.00 | 73 | 1020.1 |
| 20260902021554 | 61 | 260 | 0.0 | 1.0 | 0.00 | 0.00 | 0.00 | 74 | 1020.3 |
| 20260902020058 | 60 | 309 | 0.0 | 12.0 | 0.00 | 0.00 | 0.00 | 75 | 1020.7 |
| 20260902014550 | 60 | 282 | 0.0 | 1.0 | 0.00 | 0.00 | 0.00 | 74 | 1021.1 |
| 20260902013047 | 60 | 271 | 0.0 | 2.0 | 0.00 | 0.00 | 0.00 | 73 | 1021.5 |
| 20260902011542 | 59 | 293 | 0.0 | 4.0 | 0.00 | 0.00 | 0.00 | 74 | 1021.7 |
| 20260902010038 | 59 | 262 | 1.0 | 10.0 | 0.00 | 0.00 | 0.00 | 75 | 1022.1 |
| 20260902004537 | 59 | 251 | 0.0 | 10.0 | 0.00 | 0.00 | 0.00 | 75 | 1022.4 |
| 20260902003036 | 58 | 312 | 0.0 | 14.0 | 0.00 | 0.00 | 0.00 | 76 | 1022.6 |
| 20260902001545 | 57 | 276 | 0.0 | 8.0 | 0.00 | 0.00 | 0.00 | 77 | 1022.7 |
| 20260902000039 | 56 | 280 | 3.0 | 17.0 | 0.00 | 0.00 | 0.00 | 77 | 1022.8 |
| 20260901234529 | 56 | 326 | 0.0 | 10.0 | 0.00 | 0.00 | 0.00 | 78 | 1022.9 |
| 20260901233033 | 56 | 245 | 0.0 | 14.0 | 0.00 | 0.00 | 0.00 | 78 | 1023.1 |
| 20260901231523 | 55 | 281 | 1.0 | 14.0 | 0.00 | 0.00 | 0.00 | 80 | 1023.4 |
| 20260901230025 | 55 | 343 | 0.0 | 9.0 | 0.00 | 0.00 | 0.00 | 79 | 1023.5 |
| 20260901224526 | 54 | 266 | 0.0 | 3.0 | 0.00 | 0.00 | 0.00 | 79 | 1023.6 |
| 20260901223019 | 54 | 309 | 0.0 | 4.0 | 0.00 | 0.00 | 0.00 | 78 | 1023.2 |
| 20260901221515 | 52 | 260 | 0.0 | 12.0 | 0.00 | 0.00 | 0.00 | 79 | 1023.4 |
| 20260901220019 | 51 | 312 | 0.0 | 0.0 | 0.00 | 0.00 | 0.00 | 79 | 1023.4 |
| 20260901214509 | 50 | 318 | 0.0 | 0.0 | 0.00 | 0.00 | 0.00 | 79 | 1023.4 |
| 20260901213007 | 50 | 306 | 0.0 | 0.0 | 0.00 | 0.00 | 0.00 | 80 | 1023.1 |
| 20260901211508 | 50 | 332 | 0.0 | 0.0 | 0.00 | 0.00 | 0.00 | 80 | 1023.0 |
| 20260901210005 | 49 | 332 | 0.0 | 0.0 | 0.00 | 0.00 | 0.00 | 78 | 1023.0 |
| 20260901204505 | 49 | 253 | 0.0 | 1.0 | 0.00 | 0.00 | 0.00 | 78 | 1022.9 |
| 20260901203008 | 49 | 289 | 0.0 | 0.0 | 0.00 | 0.00 | 0.00 | 78 | 1022.7 |
| 20260901201502 | 49 | 264 | 0.0 | 9.0 | 0.00 | 0.00 | 0.00 | 78 | 1022.7 |
| 20260901200005 | 49 | 262 | 0.0 | 2.0 | 0.00 | 0.00 | 0.00 | 78 | 1022.7 |
| 20260901194604 | 48 | 310 | 0.0 | 1.0 | 0.00 | 0.00 | 0.00 | 79 | 1022.4 |
| 20260901193108 | 48 | 311 | 0.0 | 1.0 | 0.00 | 0.00 | 0.00 | 79 | 1022.2 |
| 20260901191557 | 48 | 276 | 0.0 | 5.0 | 0.00 | 0.00 | 0.00 | 80 | 1022.1 |
| 20260901190056 | 47 | 299 | 0.0 | 0.0 | 0.00 | 0.00 | 0.00 | 81 | 1022.1 |
| 20260901184559 | 47 | 283 | 0.0 | 0.0 | 0.00 | 0.00 | 0.00 | 81 | 1022.0 |
| 20260901183055 | 47 | 276 | 0.0 | 0.0 | 0.00 | 0.00 | 0.00 | 80 | 1022.1 |
| 20260901181553 | 47 | 276 | 0.0 | 0.0 | 0.00 | 0.00 | 0.00 | 80 | 1021.9 |
| 20260901180052 | 47 | 270 | 0.0 | 0.0 | 0.00 | 0.00 | 0.00 | 81 | 1021.9 |
| 20260901174552 | 47 | 299 | 0.0 | 0.0 | 0.00 | 0.00 | 0.00 | 82 | 1021.7 |
| 20260901173050 | 47 | 286 | 0.0 | 0.0 | 0.00 | 0.00 | 0.00 | 82 | 1021.6 |
| 20260901171553 | 47 | 308 | 0.0 | 0.0 | 0.00 | 0.00 | 0.00 | 82 | 1021.6 |
| 20260901164548 | 47 | 293 | 0.0 | 0.0 | 0.00 | 0.00 | 0.00 | 81 | 1021.9 |
| 20260901163044 | 47 | 292 | 0.0 | 0.0 | 0.00 | 0.00 | 0.00 | 81 | 1022.1 |
| 20260901161542 | 48 | 292 | 0.0 | 0.0 | 0.00 | 0.00 | 0.00 | 80 | 1022.2 |
| 20260901160049 | 48 | 294 | 0.0 | 0.0 | 0.00 | 0.00 | 0.00 | 81 | 1022.4 |
| 20260901154537 | 48 | 291 | 0.0 | 0.0 | 0.00 | 0.00 | 0.00 | 81 | 1022.8 |
| 20260901153035 | 47 | 282 | 0.0 | 0.0 | 0.00 | 0.00 | 0.00 | 82 | 1022.9 |
| 20260901151532 | 47 | 284 | 0.0 | 0.0 | 0.00 | 0.00 | 0.00 | 83 | 1023.0 |
| 20260901150047 | 46 | 284 | 0.0 | 0.0 | 0.00 | 0.00 | 0.00 | 83 | 1023.3 |
| 20260901144525 | 45 | 288 | 0.0 | 0.0 | 0.00 | 0.00 | 0.00 | 83 | 1023.6 |
| 20260901143022 | 43 | 276 | 0.0 | 0.0 | 0.00 | 0.00 | 0.00 | 87 | 1023.8 |
| 20260901141517 | 40 | 264 | 0.0 | 0.0 | 0.00 | 0.00 | 0.00 | 87 | 1023.9 |
| 20260901140012 | 37 | 240 | 0.0 | 0.0 | 0.00 | 0.00 | 0.00 | 85 | 1024.2 |
| 20260901134511 | 38 | 239 | 0.0 | 0.0 | 0.00 | 0.00 | 0.00 | 85 | 1024.3 |
| 20260901133011 | 38 | 239 | 0.0 | 0.0 | 0.00 | 0.00 | 0.00 | 85 | 1024.5 |
| 20260901131515 | 38 | 239 | 0.0 | 0.0 | 0.00 | 0.00 | 0.00 | 85 | 1024.6 |
| 20260901130007 | 38 | 239 | 0.0 | 0.0 | 0.00 | 0.00 | 0.00 | 86 | 1024.8 |
| 20260901124506 | 39 | 239 | 0.0 | 0.0 | 0.00 | 0.00 | 0.00 | 86 | 1024.7 |
| 20260901123013 | 39 | 239 | 0.0 | 0.0 | 0.00 | 0.00 | 0.00 | 87 | 1024.8 |
| 20260901121504 | 40 | 239 | 0.0 | 0.0 | 0.00 | 0.00 | 0.00 | 87 | 1024.9 |
| 20260901120009 | 40 | 239 | 0.0 | 0.0 | 0.00 | 0.00 | 0.00 | 87 | 1025.1 |
| 20260901114507 | 41 | 239 | 0.0 | 0.0 | 0.00 | 0.00 | 0.00 | 87 | 1025.3 |
| 20260901113009 | 41 | 239 | 0.0 | 0.0 | 0.00 | 0.00 | 0.00 | 87 | 1025.4 |
| 20260901111502 | 42 | 239 | 0.0 | 0.0 | 0.00 | 0.00 | 0.00 | 87 | 1025.4 |
| 20260901110002 | 42 | 239 | 0.0 | 0.0 | 0.00 | 0.00 | 0.00 | 87 | 1025.6 |
| 20260901104501 | 43 | 239 | 0.0 | 0.0 | 0.00 | 0.00 | 0.00 | 88 | 1025.5 |
| 20260901101600 | 44 | 239 | 0.0 | 0.0 | 0.00 | 0.00 | 0.00 | 86 | 1025.3 |
| 20260901094558 | 46 | 239 | 0.0 | 0.0 | 0.00 | 0.00 | 0.00 | 85 | 1025.1 |
| 20260901093057 | 48 | 239 | 0.0 | 0.0 | 0.00 | 0.00 | 0.00 | 82 | 1025.1 |
| 20260901091558 | 49 | 239 | 0.0 | 0.0 | 0.00 | 0.00 | 0.00 | 81 | 1024.8 |
| 20260901090058 | 51 | 239 | 0.0 | 0.0 | 0.00 | 0.00 | 0.00 | 81 | 1024.6 |
| 20260901084601 | 52 | 239 | 0.0 | 0.0 | 0.00 | 0.00 | 0.00 | 80 | 1024.5 |
| 20260901083056 | 53 | 239 | 0.0 | 0.0 | 0.00 | 0.00 | 0.00 | 80 | 1024.5 |
| 20260901081555 | 54 | 239 | 0.0 | 0.0 | 0.00 | 0.00 | 0.00 | 80 | 1024.5 |
| 20260901080057 | 55 | 239 | 0.0 | 0.0 | 0.00 | 0.00 | 0.00 | 79 | 1024.2 |
| 20260901074559 | 56 | 239 | 0.0 | 0.0 | 0.00 | 0.00 | 0.00 | 77 | 1024.2 |
| 20260901073054 | 57 | 239 | 0.0 | 0.0 | 0.00 | 0.00 | 0.00 | 73 | 1024.1 |
| 20260901071554 | 58 | 269 | 0.0 | 0.0 | 0.00 | 0.00 | 0.00 | 73 | 1024.0 |
| 20260901070052 | 59 | 239 | 0.0 | 0.0 | 0.00 | 0.00 | 0.00 | 74 | 1023.9 |
| 20260901064554 | 59 | 262 | 0.0 | 1.0 | 0.00 | 0.00 | 0.00 | 72 | 1023.9 |
| 20260901063109 | 60 | 248 | 0.0 | 0.0 | 0.00 | 0.00 | 0.00 | 70 | 1023.9 |
| 20260901061551 | 61 | 267 | 0.0 | 1.0 | 0.00 | 0.00 | 0.00 | 64 | 1023.8 |
| 20260901060150 | 62 | 246 | 0.0 | 0.0 | 0.00 | 0.00 | 0.00 | 59 | 1024.0 |
| 20260901054550 | 62 | 256 | 0.0 | 0.0 | 0.00 | 0.00 | 0.00 | 58 | 1023.9 |
| 20260901053055 | 62 | 224 | 0.0 | 0.0 | 0.00 | 0.00 | 0.00 | 57 | 1024.0 |
| 20260901051605 | 62 | 283 | 0.0 | 9.0 | 0.00 | 0.00 | 0.00 | 60 | 1024.0 |
| 20260901050049 | 61 | 251 | 0.0 | 0.0 | 0.00 | 0.00 | 0.00 | 61 | 1024.1 |
| 20260901044546 | 61 | 301 | 0.0 | 0.0 | 0.00 | 0.00 | 0.00 | 62 | 1024.2 |
| 20260901043052 | 63 | 309 | 0.0 | 10.0 | 0.00 | 0.00 | 0.00 | 58 | 1024.3 |
| 20260901041542 | 61 | 248 | 0.0 | 0.0 | 0.00 | 0.00 | 0.00 | 60 | 1024.5 |
| 20260901040041 | 62 | 257 | 0.0 | 1.0 | 0.00 | 0.00 | 0.00 | 59 | 1024.5 |
| 20260901034541 | 62 | 299 | 0.0 | 12.0 | 0.00 | 0.00 | 0.00 | 61 | 1024.8 |
| 20260901033055 | 62 | 213 | 0.0 | 0.0 | 0.00 | 0.00 | 0.00 | 65 | 1024.9 |